Weather History for Delaware, OH

Change the Weather History Date:

Wednesday, February 20, 2013

  Actual Average Record
Temperature  
Mean Temperature 18 °F -  
Max Temperature 21 °F 41 °F 65 °F (1939)
Min Temperature 15 °F 21 °F -11 °F (1936)
Degree Days  
Heating Degree Days 47    
Moisture  
Dew Point 13 °F    
Average Humidity 76    
Maximum Humidity 93    
Minimum Humidity 68    
Precipitation  
Precipitation 0.00 in - - ()
Sea Level Pressure  
Sea Level Pressure 30.18 in    
Wind  
Wind Speed 13 mph (West)    
Max Wind Speed 17 mph    
Max Gust Speed 25 mph    
Visibility 8 miles    
Events Snow    
Averages and records for this station are not official NWS values.
T = Trace of Precipitation, MM = Missing Value Source: NWS Daily Summary

Daily Weather History Graph

Daily Weather History Graph

Search for Another Location

Airport:

Trip Planner

Search our weather history database for the weather conditions in past years. The results will help you decide how hot, cold, wet, or windy it might be!

Date:

Astronomy

Feb. 20, 2013 Rise Set
Actual Time 7:18 AM EST 6:14 PM EST
Civil Twilight 6:51 AM EST 6:41 PM EST
Nautical Twilight 6:19 AM EST 7:13 PM EST
Astronomical Twilight 5:48 AM EST 7:44 PM EST
Moon 1:34 PM EST (2/20) 3:38 AM EST (2/20)
Length of Visible Light 11h 50m
Length of Day
10h 55m
Waxing Gibbous, 76% of the Moon is Illuminated
Feb 20
Waxing Gibbous
Feb 25
Full
Mar 4
Last Quarter
Mar 11
New
Mar 19
First Quarter

Hourly Weather History & Observations

Time (EST) Temp. Windchill Dew Point Humidity Pressure Visibility Wind Dir Wind Speed Gust Speed Precip Events Conditions
12:12 AM 19.4 °F 5.5 °F 14.0 °F 80% 30.04 in 10.0 mi West 15.0 mph 21.9 mph N/A Snow Light Snow
12:33 AM 19.4 °F 5.0 °F 14.0 °F 80% 30.05 in 3.0 mi WNW 16.1 mph 19.6 mph N/A Snow Light Snow
12:53 AM 19.4 °F 7.2 °F 14.0 °F 80% 30.05 in 10.0 mi WNW 11.5 mph 19.6 mph N/A Snow Light Snow
1:12 AM 19.4 °F 5.0 °F 14.0 °F 80% 30.05 in 5.0 mi WNW 16.1 mph 25.3 mph N/A Snow Light Snow
1:33 AM 19.4 °F 5.5 °F 12.2 °F 74% 30.05 in 10.0 mi WNW 15.0 mph 23.0 mph N/A Snow Light Snow
1:53 AM 19.4 °F 7.2 °F 12.2 °F 74% 30.06 in 10.0 mi WNW 11.5 mph 23.0 mph N/A Snow Light Snow
2:12 AM 17.6 °F 2.2 °F 12.2 °F 79% 30.07 in 10.0 mi WNW 17.3 mph 21.9 mph N/A   Overcast
2:33 AM 17.6 °F 5.0 °F 12.2 °F 79% 30.07 in 10.0 mi WNW 11.5 mph - N/A   Overcast
2:53 AM 17.6 °F 5.0 °F 12.2 °F 79% 30.07 in 10.0 mi WNW 11.5 mph - N/A Snow Light Snow
3:12 AM 17.6 °F 7.3 °F 12.2 °F 79% 30.08 in 10.0 mi WNW 8.1 mph 11.5 mph N/A Snow Light Snow
4:12 AM 17.6 °F 3.7 °F 12.2 °F 79% 30.09 in 10.0 mi West 13.8 mph 19.6 mph N/A   Overcast
4:33 AM 17.6 °F 5.7 °F 12.2 °F 79% 30.09 in 10.0 mi West 10.4 mph 18.4 mph N/A   Overcast
4:53 AM 17.6 °F 2.7 °F 10.4 °F 73% 30.09 in 10.0 mi West 16.1 mph 20.7 mph N/A   Overcast
5:12 AM 17.6 °F 3.2 °F 10.4 °F 73% 30.10 in 10.0 mi West 15.0 mph 20.7 mph N/A   Overcast
5:33 AM 17.6 °F 5.0 °F 10.4 °F 73% 30.11 in 10.0 mi West 11.5 mph 19.6 mph N/A   Overcast
5:53 AM 17.6 °F 3.2 °F 10.4 °F 73% 30.11 in 10.0 mi West 15.0 mph 20.7 mph N/A   Overcast
6:12 AM 17.6 °F 3.2 °F 10.4 °F 73% 30.12 in 10.0 mi West 15.0 mph - N/A   Overcast
6:33 AM 17.6 °F 3.2 °F 10.4 °F 73% 30.12 in 10.0 mi West 15.0 mph 23.0 mph N/A Snow Light Snow
6:53 AM 17.6 °F 2.7 °F 10.4 °F 73% 30.13 in 10.0 mi West 16.1 mph - N/A   Overcast
7:12 AM 17.6 °F 5.0 °F 10.4 °F 73% 30.14 in 10.0 mi WNW 11.5 mph - N/A Snow Light Snow
7:33 AM 17.6 °F 3.7 °F 10.4 °F 73% 30.15 in 5.0 mi WNW 13.8 mph 19.6 mph N/A Snow Light Snow
7:53 AM 17.6 °F 3.2 °F 10.4 °F 73% 30.16 in 5.0 mi WNW 15.0 mph 20.7 mph N/A Snow Light Snow
8:12 AM 15.8 °F 1.4 °F 10.4 °F 79% 30.17 in 1.2 mi West 13.8 mph - N/A Snow Light Snow
8:33 AM 15.8 °F 4.2 °F 10.4 °F 79% 30.16 in 7.0 mi West 9.2 mph - N/A   Mostly Cloudy
8:53 AM 17.6 °F 4.3 °F 10.4 °F 73% 30.16 in 10.0 mi West 12.7 mph - N/A   Scattered Clouds
9:13 AM 17.6 °F 6.4 °F 8.6 °F 68% 30.17 in 10.0 mi West 9.2 mph - N/A   Overcast
9:33 AM 17.6 °F 2.7 °F 10.4 °F 73% 30.18 in 10.0 mi West 16.1 mph 23.0 mph N/A   Overcast
9:53 AM 17.6 °F 3.7 °F 10.4 °F 73% 30.18 in 10.0 mi West 13.8 mph 19.6 mph N/A   Overcast
10:13 AM 17.6 °F 3.7 °F 10.4 °F 73% 30.18 in 10.0 mi West 13.8 mph 19.6 mph N/A   Overcast
10:33 AM 17.6 °F 4.3 °F 10.4 °F 73% 30.19 in 10.0 mi West 12.7 mph 19.6 mph N/A   Overcast
10:52 AM 19.4 °F 6.6 °F 10.4 °F 68% 30.19 in 10.0 mi West 12.7 mph - N/A   Overcast
11:13 AM 19.4 °F 5.5 °F 10.4 °F 68% 30.19 in 10.0 mi West 15.0 mph 18.4 mph N/A   Overcast
11:33 AM 19.4 °F 6.6 °F 10.4 °F 68% 30.20 in 10.0 mi West 12.7 mph - N/A   Overcast
11:52 AM 19.4 °F 6.6 °F 10.4 °F 68% 30.20 in 10.0 mi West 12.7 mph 19.6 mph N/A   Mostly Cloudy
12:13 PM 21.2 °F 9.5 °F 12.2 °F 68% 30.20 in 10.0 mi West 11.5 mph 18.4 mph N/A   Mostly Cloudy
12:33 PM 21.2 °F 8.9 °F 12.2 °F 68% 30.20 in 10.0 mi West 12.7 mph - N/A   Overcast
12:52 PM 21.2 °F 7.8 °F 12.2 °F 68% 30.19 in 10.0 mi WNW 15.0 mph - N/A   Overcast
1:13 PM 21.2 °F 6.8 °F 12.2 °F 68% 30.20 in 10.0 mi NW 17.3 mph 21.9 mph N/A   Overcast
1:33 PM 21.2 °F 8.3 °F 12.2 °F 68% 30.20 in 10.0 mi West 13.8 mph 19.6 mph N/A   Overcast
1:52 PM 21.2 °F 7.3 °F 12.2 °F 68% 30.20 in 10.0 mi West 16.1 mph 24.2 mph N/A   Unknown
2:13 PM 21.2 °F 7.3 °F 12.2 °F 68% 30.20 in 10.0 mi West 16.1 mph 23.0 mph N/A   Overcast
2:33 PM 21.2 °F 7.8 °F 12.2 °F 68% 30.21 in 10.0 mi West 15.0 mph 19.6 mph N/A Snow Light Snow
2:52 PM 21.2 °F 7.8 °F 14.0 °F 74% 30.21 in 10.0 mi West 15.0 mph - N/A   Overcast
3:13 PM 21.2 °F 9.5 °F 14.0 °F 74% 30.22 in 5.0 mi West 11.5 mph - N/A Snow Light Snow
3:33 PM 21.2 °F 9.5 °F 14.0 °F 74% 30.22 in 7.0 mi West 11.5 mph - N/A Snow Light Snow
4:13 PM 21.2 °F 9.5 °F 14.0 °F 74% 30.23 in 7.0 mi West 11.5 mph 16.1 mph N/A Snow Light Snow
4:33 PM 21.2 °F 7.8 °F 14.0 °F 74% 30.23 in 10.0 mi WNW 15.0 mph 18.4 mph N/A   Overcast
4:52 PM 21.2 °F 8.3 °F 14.0 °F 74% 30.24 in 10.0 mi West 13.8 mph - N/A   Overcast
5:13 PM 21.2 °F 8.9 °F 14.0 °F 74% 30.24 in 10.0 mi WNW 12.7 mph 18.4 mph N/A   Overcast
5:33 PM 21.2 °F 9.5 °F 14.0 °F 74% 30.24 in 10.0 mi West 11.5 mph - N/A Snow Light Snow
5:53 PM 21.2 °F 8.9 °F 14.0 °F 74% 30.24 in 10.0 mi West 12.7 mph - N/A   Overcast
6:13 PM 21.2 °F 11.7 °F 14.0 °F 74% 30.24 in 10.0 mi West 8.1 mph 16.1 mph N/A Snow Light Snow
6:32 PM 21.2 °F 11.7 °F 14.0 °F 74% 30.24 in 10.0 mi West 8.1 mph - N/A Snow Light Snow
6:53 PM 21.2 °F 9.5 °F 14.0 °F 74% 30.25 in 7.0 mi West 11.5 mph - N/A Snow Light Snow
7:13 PM 21.2 °F 10.9 °F 14.0 °F 74% 30.26 in 10.0 mi West 9.2 mph - N/A Snow Light Snow
7:33 PM 21.2 °F 12.6 °F 14.0 °F 74% 30.26 in 7.0 mi West 6.9 mph - N/A Snow Light Snow
7:53 PM 21.2 °F 12.6 °F 15.8 °F 80% 30.26 in 4.0 mi West 6.9 mph - N/A Snow Light Snow
8:13 PM 21.2 °F 12.6 °F 15.8 °F 80% 30.25 in 4.0 mi West 6.9 mph - N/A Snow Light Snow
8:32 PM 21.2 °F 11.7 °F 15.8 °F 80% 30.26 in 4.0 mi West 8.1 mph - N/A Snow Light Snow
8:53 PM 21.2 °F 11.7 °F 15.8 °F 80% 30.26 in 4.0 mi West 8.1 mph - N/A Snow Light Snow
9:13 PM 19.4 °F 9.5 °F 15.8 °F 86% 30.26 in 5.0 mi West 8.1 mph - N/A Snow Light Snow
9:32 PM 19.4 °F 11.5 °F 17.6 °F 93% 30.26 in 5.0 mi West 5.8 mph - N/A Snow Light Snow
9:53 PM 19.4 °F 10.4 °F 17.6 °F 93% 30.25 in 5.0 mi West 6.9 mph - N/A Snow Light Snow
10:13 PM 19.4 °F 10.4 °F 17.6 °F 93% 30.25 in 4.0 mi West 6.9 mph - N/A Snow Light Snow
10:32 PM 19.4 °F 11.5 °F 17.6 °F 93% 30.25 in 4.0 mi West 5.8 mph - N/A Snow Light Snow
10:53 PM 19.4 °F 11.5 °F 17.6 °F 93% 30.24 in 5.0 mi West 5.8 mph - N/A Snow Light Snow
11:13 PM 19.4 °F 11.5 °F 17.6 °F 93% 30.24 in 5.0 mi West 5.8 mph - N/A Snow Light Snow
11:32 PM 21.2 °F 11.7 °F 17.6 °F 86% 30.24 in 5.0 mi West 8.1 mph - N/A Snow Light Snow
11:53 PM 21.2 °F 13.6 °F 17.6 °F 86% 30.24 in 5.0 mi West 5.8 mph - N/A Snow Light Snow